User: anonymous   Login
Location: Bucquoy
(50.1391°N, 2.7097°E)
Time: 00:35:03
(UTC+00:00)
Language:

IDEFIX/ARIANE 42P - Orbit

View from above orbital plane
View from above orbital plane
View from above satellite
View from above satellite

Ground track
Ground track

The orbit data is extracted from the following two-line orbital elements,

1 27422U 02021B   21213.82026794  .00000009  00000-0  20036-4 0  9993
2 27422  98.4046 165.2114 0013416  97.9206 262.3500 14.29326099  1899
Epoch (UTC): 01 August 2021 19:41:11
Eccentricity: 0.0013416
inclination: 98.4046°
perigee height: 784 km
apogee height: 803 km
right ascension of ascending node: 165.2114°
argument of perigee: 97.9206°
revolutions per day: 14.29326099
mean anomaly at epoch: 262.3500°
orbit number at epoch: 189

The dashed part of the orbit path shows where the satellite is in the earth's shadow,  

DLR